Preview of NWS' New Version of Forecast
This preview is not operational and should not be used for support decisions.

Regional Weather Roundup (RWR)

Issued by National Weather Service (NWS)

                            
000
ASUS45 KCYS 241910
RWRWY 

WYOMING REGIONAL WEATHER ROUNDUP
NATIONAL WEATHER SERVICE CHEYENNE WY
100 PM MDT SAT AUG 24 2019

NOTE:  "FAIR" INDICATES FEW OR NO CLOUDS BELOW 12,000 FEET
WITH NO SIGNIFICANT WEATHER AND/OR OBSTRUCTIONS TO VISIBILITY.

WYZ001-242000-
YELLOWSTONE NATIONAL PARK
  
CITY           SKY/WX    TMP DP  RH WIND       PRES   REMARKS
LK YELLOWSTONE   N/A     68  34  28 MISG      30.21F                  
W YELLOWSTONE  NOT AVBL                                               

$$
WYZ002>013-054>058-071-098>099-242000-
NORTHERN WYOMING
  
CITY           SKY/WX    TMP DP  RH WIND       PRES   REMARKS
JACKSON        FAIR      74  37  26 S9        30.14F                  
CODY           FAIR      79  41  25 W8        29.98S                  
GREYBULL       FAIR      83  44  25 VRB7      29.91F                  
WORLAND        FAIR      79  43  27 CALM      29.93F                  
SHERIDAN       FAIR      84  47  27 CALM      29.90F                  
BUFFALO        FAIR      79  46  31 NW8         N/A                   
GILLETTE       FAIR      78  53  41 NW8       29.94F                  
HULETT         FAIR      73  59  60 SW6       29.95                   
NEWCASTLE      FAIR      73  52  46 SE9       29.95                   

$$
WYZ014>020-022>026-101>103-242000-
CENTRAL WYOMING
  
CITY           SKY/WX    TMP DP  RH WIND       PRES   REMARKS
BIG PINEY      FAIR      74  31  20 MISG      30.18F                  
PINEDALE       FAIR      72  30  21 W8        30.20F                  
DUBOIS         FAIR      73  32  21 W14       30.13                   
LANDER         FAIR      80  41  24 VRB5      30.03F                  
RIVERTON       FAIR      78  44  29 VRB5      30.03F                  
CASPER         FAIR      81  38  21 W16G26    30.01F                  
DOUGLAS        FAIR      82  44  26 NW20G25   29.99F                  

$$
WYZ021-027>030-104>119-242000-
SOUTHERN WYOMING
  
CITY           SKY/WX    TMP DP  RH WIND       PRES   REMARKS
EVANSTON       FAIR      78  29  16 W23G30    30.23S                  
KEMMERER       FAIR      77  27  15 W23G31    30.22                   
ROCK SPRINGS   FAIR      78  28  16 W15G32    30.18F                  
DIXON          FAIR      75  27  16 S12       30.20F                  
RAWLINS        FAIR      78  33  19 W20G30    30.14F                  
SARATOGA       FAIR      75  32  20 W17G28    30.19S                  
LARAMIE        FAIR      75  30  19 W17G24    30.15F                  
CHEYENNE       PTSUNNY   77  36  22 NW17G26   30.06F                  
TORRINGTON     FAIR      76  58  53 CALM      29.96F                  
PINE BLUFFS    FAIR      77  46  33 N9G18     30.03S                  

$$